�������l�o���
Date,Time,MP-1(��Sv/h),MP-2(��Sv/h),MP-3(��Sv/h),MP-4(��Sv/h),MP-5(��Sv/h),MP-6(��Sv/h),MP-7(��Sv/h),MP-8(��Sv/h),����,����(m/s),���J
2020/01/26,00:00,0.698,1.003,0.661,1.257,0.882,0.399,0.702,0.668,�k�k��,4.7,��
2020/01/26,00:10,0.698,1.001,0.661,1.257,0.879,0.400,0.703,0.669,�k�k��,4.6,��
2020/01/26,00:20,0.699,1.001,0.661,1.257,0.882,0.398,0.702,0.667,�k�k��,5.5,��
2020/01/26,00:30,0.699,1.002,0.660,1.260,0.880,0.399,0.702,0.669,�k�k��,5.6,��
2020/01/26,00:40,0.697,1.002,0.660,1.257,0.882,0.398,0.702,0.668,�k�k��,5.7,��
2020/01/26,00:50,0.699,1.003,0.659,1.257,0.882,0.397,0.701,0.668,�k�k��,5.2,��
2020/01/26,01:00,0.695,1.001,0.661,1.258,0.882,0.397,0.702,0.668,�k�k��,5.8,��
2020/01/26,01:10,0.697,1.001,0.660,1.256,0.881,0.398,0.702,0.668,�k�k��,4.9,��
2020/01/26,01:20,0.699,1.000,0.660,1.255,0.880,0.398,0.702,0.668,�k�k��,4.7,��
2020/01/26,01:30,0.698,1.002,0.660,1.257,0.880,0.398,0.703,0.668,�k�k��,4.7,��
2020/01/26,01:40,0.700,1.002,0.659,1.257,0.880,0.397,0.701,0.669,�k�k��,4.9,��
2020/01/26,01:50,0.699,1.002,0.660,1.255,0.883,0.399,0.702,0.667,�k�k��,5.9,��
2020/01/26,02:00,0.699,1.002,0.660,1.258,0.881,0.398,0.702,0.668,�k�k��,5.3,��
2020/01/26,02:10,0.698,1.002,0.661,1.256,0.882,0.399,0.702,0.669,�k��,5.3,��
2020/01/26,02:20,0.700,1.002,0.661,1.255,0.884,0.399,0.702,0.667,�k��,5.0,��
2020/01/26,02:30,0.699,1.002,0.662,1.257,0.882,0.399,0.704,0.668,�k��,4.9,��
2020/01/26,02:40,0.698,1.001,0.659,1.257,0.882,0.397,0.703,0.669,�k��,4.9,��
2020/01/26,02:50,0.700,1.003,0.660,1.254,0.882,0.400,0.703,0.667,�k��,5.0,��
2020/01/26,03:00,0.699,1.000,0.661,1.257,0.883,0.400,0.703,0.668,�k��,5.5,��
2020/01/26,03:10,0.697,1.001,0.658,1.257,0.884,0.398,0.701,0.669,�k�k��,4.8,��
2020/01/26,03:20,0.699,1.001,0.659,1.258,0.883,0.399,0.704,0.668,�k�k��,4.5,��
2020/01/26,03:30,0.699,1.002,0.660,1.258,0.882,0.397,0.705,0.669,�k�k��,5.3,��
2020/01/26,03:40,0.698,0.999,0.661,1.256,0.880,0.398,0.704,0.670,�k�k��,5.5,��
2020/01/26,03:50,0.701,1.000,0.659,1.260,0.882,0.398,0.704,0.667,�k�k��,4.9,��
2020/01/26,04:00,0.698,1.003,0.661,1.256,0.882,0.397,0.702,0.668,�k�k��,4.2,��
2020/01/26,04:10,0.699,1.001,0.660,1.257,0.883,0.400,0.702,0.668,�k�k��,4.4,��
2020/01/26,04:20,0.698,1.002,0.661,1.258,0.881,0.398,0.702,0.668,�k�k��,4.5,��
2020/01/26,04:30,0.696,1.002,0.660,1.259,0.880,0.397,0.702,0.668,�k�k��,3.6,��
2020/01/26,04:40,0.699,1.002,0.661,1.258,0.880,0.399,0.703,0.668,�k�k��,5.0,��
2020/01/26,04:50,0.699,1.002,0.660,1.255,0.880,0.398,0.704,0.668,�k�k��,4.2,��
2020/01/26,05:00,0.698,1.001,0.661,1.257,0.882,0.400,0.703,0.669,�k,4.9,��
2020/01/26,05:10,0.699,1.002,0.658,1.257,0.879,0.398,0.702,0.668,�k�k��,4.7,��
2020/01/26,05:20,0.698,1.002,0.661,1.258,0.882,0.397,0.703,0.669,�k,4.4,��
2020/01/26,05:30,0.697,1.000,0.659,1.257,0.882,0.398,0.701,0.668,�k�k��,5.0,��
2020/01/26,05:40,0.697,1.002,0.659,1.257,0.882,0.398,0.701,0.667,�k�k��,4.1,��
2020/01/26,05:50,0.698,1.001,0.660,1.257,0.882,0.398,0.702,0.668,�k�k��,3.3,��
2020/01/26,06:00,0.698,1.001,0.659,1.256,0.880,0.398,0.702,0.667,�k�k��,3.8,��
2020/01/26,06:10,0.699,1.001,0.661,1.258,0.882,0.398,0.701,0.668,�k�k��,4.1,��
2020/01/26,06:20,0.696,1.002,0.659,1.256,0.880,0.398,0.703,0.669,�k��,3.4,��
2020/01/26,06:30,0.697,1.002,0.660,1.257,0.880,0.399,0.702,0.668,�k�k��,3.3,��
2020/01/26,06:40,0.697,1.001,0.660,1.256,0.880,0.398,0.701,0.668,�k�k��,3.1,��
2020/01/26,06:50,0.697,1.001,0.660,1.257,0.882,0.398,0.704,0.667,�k,3.6,��
2020/01/26,07:00,0.698,1.001,0.659,1.256,0.880,0.399,0.702,0.668,�k,4.4,��
2020/01/26,07:10,0.699,1.001,0.660,1.255,0.881,0.398,0.702,0.668,�k,4.4,��
2020/01/26,07:20,0.698,1.001,0.660,1.258,0.881,0.395,0.704,0.668,�k,4.2,��
2020/01/26,07:30,0.698,1.001,0.657,1.259,0.880,0.399,0.702,0.669,�k,3.8,��
2020/01/26,07:40,0.698,1.000,0.659,1.257,0.882,0.397,0.703,0.668,�k,3.9,��
2020/01/26,07:50,0.700,1.002,0.663,1.256,0.880,0.400,0.703,0.668,�k�k��,3.6,��
2020/01/26,08:00,0.697,1.001,0.661,1.257,0.881,0.398,0.702,0.669,�k�k��,4.1,��
2020/01/26,08:10,0.699,1.001,0.660,1.257,0.880,0.398,0.703,0.670,�k�k��,4.3,��
2020/01/26,08:20,0.699,1.003,0.658,1.258,0.881,0.398,0.703,0.667,�k�k��,3.6,��
2020/01/26,08:30,0.698,1.002,0.661,1.256,0.882,0.398,0.703,0.670,�k�k��,3.8,��
2020/01/26,08:40,0.700,1.003,0.660,1.258,0.881,0.399,0.703,0.669,�k�k��,4.4,��
2020/01/26,08:50,0.699,1.001,0.662,1.259,0.882,0.400,0.704,0.667,�k�k��,4.6,��
2020/01/26,09:00,0.699,1.000,0.660,1.259,0.882,0.398,0.705,0.669,�k�k��,4.8,��
2020/01/26,09:10,0.699,1.002,0.661,1.256,0.882,0.399,0.705,0.669,�k�k��,3.5,��
2020/01/26,09:20,0.699,1.004,0.659,1.257,0.884,0.398,0.706,0.669,�k�k��,3.6,��
2020/01/26,09:30,0.700,1.002,0.662,1.258,0.884,0.398,0.704,0.669,�k�k��,3.6,��
2020/01/26,09:40,0.698,1.003,0.661,1.256,0.883,0.399,0.703,0.670,�k�k��,3.6,��
2020/01/26,09:50,0.701,1.002,0.662,1.256,0.885,0.399,0.703,0.669,�k,2.8,��
2020/01/26,10:00,0.700,1.002,0.660,1.259,0.884,0.400,0.703,0.668,�k�k��,2.3,��
2020/01/26,10:10,0.700,1.004,0.661,1.261,0.882,0.400,0.701,0.669,�k�k��,2.7,��
2020/01/26,10:20,0.700,1.003,0.663,1.259,0.884,0.400,0.701,0.669,�k�k��,2.2,��
2020/01/26,10:30,0.701,1.006,0.660,1.258,0.882,0.400,0.702,0.671,���k��,1.9,��
2020/01/26,10:40,0.702,1.005,0.661,1.260,0.883,0.399,0.701,0.670,�k�k��,1.8,��
2020/01/26,10:50,0.700,1.006,0.663,1.260,0.884,0.399,0.701,0.669,���k��,1.7,��
2020/01/26,11:00,0.703,1.005,0.662,1.260,0.884,0.400,0.703,0.668,�k��,2.2,��
2020/01/26,11:10,0.703,1.006,0.662,1.260,0.884,0.399,0.701,0.670,�k,1.1,��
2020/01/26,11:20,0.702,1.005,0.663,1.259,0.884,0.400,0.701,0.669,�k��,1.7,��
2020/01/26,11:30,0.703,1.007,0.662,1.260,0.886,0.399,0.701,0.671,���k��,1.7,��
2020/01/26,11:40,0.702,1.007,0.665,1.261,0.885,0.400,0.702,0.670,�k��,2.4,��
2020/01/26,11:50,0.701,1.004,0.661,1.259,0.884,0.400,0.701,0.670,���k��,2.6,��
2020/01/26,12:00,0.702,1.001,0.663,1.259,0.883,0.398,0.701,0.669,�k��,3.2,��
2020/01/26,12:10,0.701,1.003,0.663,1.260,0.885,0.399,0.701,0.670,�k��,3.2,��
2020/01/26,12:20,0.703,1.003,0.664,1.261,0.884,0.400,0.702,0.669,�k��,3.2,��
2020/01/26,12:30,0.703,1.005,0.663,1.259,0.886,0.400,0.702,0.670,�k��,3.8,��
2020/01/26,12:40,0.704,1.007,0.663,1.261,0.887,0.401,0.703,0.670,�k��,3.1,��
2020/01/26,12:50,0.703,1.005,0.664,1.259,0.887,0.400,0.704,0.670,�k��,3.8,��
2020/01/26,13:00,0.704,1.005,0.663,1.260,0.885,0.400,0.701,0.669,�k��,3.5,��
2020/01/26,13:10,0.703,1.006,0.663,1.261,0.886,0.400,0.703,0.670,�k��,3.5,��
2020/01/26,13:20,0.703,1.008,0.662,1.262,0.886,0.401,0.703,0.669,�k�k��,3.1,��
2020/01/26,13:30,0.703,1.005,0.663,1.258,0.885,0.401,0.703,0.672,�k��,2.8,��
2020/01/26,13:40,0.703,1.006,0.662,1.260,0.885,0.402,0.703,0.672,�k��,3.2,��
2020/01/26,13:50,0.704,1.006,0.663,1.260,0.884,0.401,0.704,0.670,�k�k��,3.5,��
2020/01/26,14:00,0.703,1.007,0.662,1.258,0.883,0.401,0.704,0.667,���k��,3.4,��
2020/01/26,14:10,0.705,1.005,0.662,1.261,0.885,0.400,0.704,0.669,�k�k��,3.1,��
2020/01/26,14:20,0.704,1.006,0.662,1.263,0.884,0.401,0.704,0.668,�k�k��,2.4,��
2020/01/26,14:30,0.704,1.007,0.663,1.261,0.886,0.400,0.704,0.668,�k�k��,2.6,��
2020/01/26,14:40,0.704,1.006,0.663,1.260,0.887,0.401,0.705,0.668,�k�k��,2.3,��
2020/01/26,14:50,0.703,1.006,0.663,1.261,0.888,0.401,0.706,0.667,���k��,1.9,��
2020/01/26,15:00,0.701,1.008,0.663,1.261,0.884,0.401,0.706,0.669,�k,2.4,��
2020/01/26,15:10,0.704,1.008,0.664,1.261,0.888,0.402,0.706,0.670,���k��,1.5,��
2020/01/26,15:20,0.703,1.007,0.664,1.259,0.887,0.402,0.704,0.670,�k��,1.2,��
2020/01/26,15:30,0.704,1.006,0.663,1.260,0.888,0.401,0.705,0.670,���k��,1.8,��
2020/01/26,15:40,0.702,1.009,0.664,1.263,0.887,0.401,0.706,0.670,�k��,1.6,��
2020/01/26,15:50,0.704,1.007,0.664,1.263,0.886,0.400,0.705,0.669,�k�k��,2.0,��
2020/01/26,16:00,0.704,1.008,0.662,1.259,0.882,0.402,0.705,0.668,�k�k��,1.5,��
2020/01/26,16:10,0.702,1.007,0.663,1.263,0.885,0.401,0.705,0.668,�k��,1.0,��
2020/01/26,16:20,0.703,1.005,0.663,1.257,0.885,0.401,0.703,0.668,�k��,1.1,��
2020/01/26,16:30,0.701,1.008,0.663,1.261,0.885,0.402,0.705,0.668,�k,1.3,��
2020/01/26,16:40,0.703,1.007,0.664,1.262,0.888,0.401,0.705,0.670,�k�k��,0.5,��
2020/01/26,16:50,0.702,1.005,0.663,1.262,0.885,0.401,0.705,0.670,-,CALM,��
2020/01/26,17:00,0.702,1.005,0.664,1.261,0.885,0.401,0.706,0.669,-,CALM,��
2020/01/26,17:10,0.702,1.006,0.664,1.258,0.884,0.401,0.706,0.669,�k,1.0,��
2020/01/26,17:20,0.701,1.008,0.663,1.260,0.885,0.402,0.706,0.669,�k�k��,1.2,��
2020/01/26,17:30,0.701,1.005,0.662,1.260,0.885,0.402,0.704,0.669,�k,2.1,��
2020/01/26,17:40,0.703,1.006,0.663,1.259,0.887,0.401,0.703,0.670,�k�k��,1.9,��
2020/01/26,17:50,0.699,1.005,0.663,1.260,0.884,0.401,0.704,0.668,�k�k��,1.4,��
2020/01/26,18:00,0.703,1.007,0.662,1.259,0.886,0.401,0.705,0.670,�k�k��,1.3,��
2020/01/26,18:10,0.701,1.006,0.662,1.258,0.884,0.401,0.704,0.671,�k�k��,2.4,��
2020/01/26,18:20,0.700,1.007,0.663,1.260,0.886,0.400,0.703,0.667,�k�k��,2.9,��
2020/01/26,18:30,0.700,1.005,0.662,1.260,0.888,0.401,0.702,0.668,�k�k��,2.4,��
2020/01/26,18:40,0.701,1.003,0.664,1.261,0.887,0.401,0.704,0.670,�k�k��,3.4,��
2020/01/26,18:50,0.701,1.004,0.663,1.259,0.888,0.399,0.705,0.669,�k��,4.2,��
2020/01/26,19:00,0.702,1.007,0.663,1.260,0.885,0.400,0.705,0.670,�k��,4.2,��
2020/01/26,19:10,0.702,1.005,0.663,1.260,0.885,0.398,0.706,0.669,�k��,3.6,�L
2020/01/26,19:20,0.700,1.006,0.663,1.259,0.887,0.401,0.703,0.669,�k��,3.0,��
2020/01/26,19:30,0.703,1.006,0.663,1.260,0.886,0.401,0.703,0.669,�k��,3.5,��
2020/01/26,19:40,0.701,1.005,0.662,1.261,0.886,0.401,0.703,0.669,�k��,3.4,��
2020/01/26,19:50,0.701,1.004,0.662,1.259,0.885,0.401,0.704,0.669,�k��,3.1,��
2020/01/26,20:00,0.701,1.007,0.661,1.258,0.885,0.399,0.704,0.670,���k��,3.0,��
2020/01/26,20:10,0.700,1.005,0.663,1.261,0.886,0.400,0.703,0.670,���k��,3.0,��
2020/01/26,20:20,0.700,1.006,0.663,1.260,0.885,0.400,0.702,0.669,���k��,2.8,��
2020/01/26,20:30,0.702,1.007,0.662,1.259,0.886,0.400,0.704,0.671,���k��,2.7,��
2020/01/26,20:40,0.700,1.005,0.663,1.260,0.885,0.400,0.704,0.669,���k��,3.2,��
2020/01/26,20:50,0.701,1.007,0.663,1.261,0.886,0.399,0.704,0.669,�k��,3.3,��
2020/01/26,21:00,0.700,1.005,0.661,1.260,0.886,0.401,0.703,0.669,���k��,2.7,��
2020/01/26,21:10,0.698,1.002,0.660,1.259,0.884,0.400,0.703,0.669,���k��,3.8,��
2020/01/26,21:20,0.700,1.003,0.662,1.260,0.887,0.400,0.703,0.670,���k��,4.2,��
2020/01/26,21:30,0.700,1.006,0.662,1.262,0.887,0.400,0.704,0.668,�k��,4.1,��
2020/01/26,21:40,0.701,1.004,0.662,1.258,0.885,0.400,0.703,0.669,�k��,6.1,��
2020/01/26,21:50,0.701,1.006,0.662,1.261,0.885,0.400,0.702,0.668,�k��,5.5,��
2020/01/26,22:00,0.700,1.005,0.664,1.260,0.887,0.401,0.703,0.671,�k��,4.3,��
2020/01/26,22:10,0.702,1.006,0.661,1.259,0.884,0.400,0.704,0.669,�k��,4.5,��
2020/01/26,22:20,0.701,1.003,0.662,1.260,0.885,0.399,0.703,0.670,�k��,5.6,��
2020/01/26,22:30,0.700,1.006,0.662,1.260,0.885,0.399,0.703,0.667,�k��,5.5,��
2020/01/26,22:40,0.702,1.005,0.663,1.257,0.886,0.399,0.703,0.669,���k��,6.4,��
2020/01/26,22:50,0.700,1.002,0.662,1.263,0.884,0.398,0.702,0.669,�k��,4.5,��
2020/01/26,23:00,0.700,1.005,0.661,1.258,0.885,0.400,0.704,0.670,���k��,4.4,��
2020/01/26,23:10,0.700,1.004,0.662,1.262,0.885,0.398,0.702,0.668,���k��,3.3,��
2020/01/26,23:20,0.701,1.006,0.662,1.259,0.885,0.398,0.705,0.669,���k��,3.1,��
2020/01/26,23:30,0.700,1.004,0.660,1.259,0.885,0.398,0.703,0.669,��,3.5,��
2020/01/26,23:40,0.700,1.004,0.660,1.261,0.884,0.398,0.702,0.669,��,4.3,��
2020/01/26,23:50,0.700,1.004,0.661,1.260,0.884,0.398,0.702,0.669,��,2.9,��
